Regional Weather Roundup
Issued by NWS

Home | Current Version | Previous Version | Graphics & Text | Print | Product List | Glossary On
Versions: 1 2 3 4 5 6 7 8 9 10 11 12 13 14 15 16 17 18 19 20 21 22 23 24 25 26 27 28 29 30 31 32 33 34 35 36 37 38 39 40 41 42 43 44 45 46 47 48 49 50
000
ASUS45 KPSR 221900
RWRAZ

PRELIMINARY ARIZONA REGIONAL HOURLY WEATHER ROUNDUP
NATIONAL WEATHER SERVICE PHOENIX AZ
1200 PM MST WED OCT 22 2014

NOTE: FAIR INDICATES FEW OR NO CLOUDS BELOW 12,000 FEET WITH NO
SIGNIFICANT WEATHER AND/OR OBSTRUCTIONS TO VISIBILITY.

AZZ001>003-036-222000-
NORTHWEST ARIZONA

CITY           SKY/WX    TMP DP  RH WIND       PRES   REMARKS
KINGMAN        SUNNY     78  41  26 CALM      30.09S
$$

AZZ004>008-015-016-018-222000-
NORTH CENTRAL ARIZONA

CITY           SKY/WX    TMP DP  RH WIND       PRES   REMARKS
GRAND CANYON   SUNNY     64  31  28 N5        30.25F
PRESCOTT       MOSUNNY   72  40  31 VRB3      30.17F
FLAGSTAFF      SUNNY     65  36  34 SE8       30.26F
PAYSON         SUNNY     70  46  43 VRB5      30.19F
PAGE           SUNNY     72  39  30 NE7       30.13F
$$

AZZ009>014-017-222000-
NORTHEAST ARIZONA

CITY           SKY/WX    TMP DP  RH WIND       PRES   REMARKS
WINSLOW        NOT AVBL
SAINT JOHNS    SUNNY     67  42  40 S5        30.19F
$$

AZZ023-222000-
GREATER PHOENIX AREA

CITY           SKY/WX    TMP DP  RH WIND       PRES   REMARKS
PHOENIX        MOSUNNY   85  51  31 CALM      29.95F
GLENDALE       MOSUNNY   84  54  34 E5        29.97F
LUKE AFB       SUNNY     84  53  34 VRB1      29.95F
DEER VALLEY    SUNNY     83  50  31 S5        29.96F
SCOTTSDALE     SUNNY     85  52  32 SE5       29.98F
MESA-FALCON    MOSUNNY   82  50  32 E5        29.96F
CHANDLER       MOSUNNY   82  54  36 CALM      29.97F
$$

AZZ027-028-222000-
SOUTHWEST MARICOPA COUNTY AND PINAL COUNTY

CITY           SKY/WX    TMP DP  RH WIND       PRES   REMARKS
CASA GRANDE    SUNNY     82  50  32 CALM      29.97F
$$

AZZ503-504-507>509-222000-
SOUTHEAST ARIZONA

CITY           SKY/WX    TMP DP  RH WIND       PRES   REMARKS
TUCSON         SUNNY     84  47  27 SE6       30.02F
DAVIS-MONTHAN  SUNNY     84  48  28 E5        30.00F
RYAN FIELD       N/A     84  52  32 E8        30.01F
NOGALES        SUNNY     80  32  17 MISG      30.07F
SIERRA VISTA   MOSUNNY   73  43  33 VRB5      30.13F
SAFFORD        SUNNY     77  53  43 SE6       30.06F
$$

AZZ020-021-025-026-031-222000-
SOUTHWEST ARIZONA

CITY           SKY/WX    TMP DP  RH WIND       PRES   REMARKS
YUMA           MOSUNNY   93  52  24 N7        29.89S
$$

CAZ031-033-041-043-047-048-061-222000-
SOUTHERN CALIFORNIA

CITY           SKY/WX    TMP DP  RH WIND       PRES   REMARKS
DOWNTOWN L.A.  SUNNY     81  54  39 VRB3      29.92F
SAN DIEGO      MOSUNNY   77  60  55 W5        29.93F
BURBANK        SUNNY     79  43  27 S5        29.95F
ONTARIO        PTSUNNY   81  44  27 NE5       29.95F
RIVERSIDE      SUNNY     83  44  25 CALM      29.94F
PALM SPRINGS   MOSUNNY   91  29  11 CALM      29.93F
EL CENTRO NAS  MOSUNNY   90  47  22 VRB3      29.89F
IMPERIAL       SUNNY     86  55  34 N5        29.89F
BLYTHE         SUNNY     87  49  26 CALM      29.93F
$$

NVZ020-UTZ003-222000-
SOUTHERN NEVADA-UTAH

CITY           SKY/WX    TMP DP  RH WIND       PRES   REMARKS
LAS VEGAS      NOT AVBL
SALT LAKE CITY MOSUNNY   59  30  33 VRB5      30.20S
$$

NMZ009-TXZ055-222000-
NEW MEXICO-WEST TEXAS

CITY           SKY/WX    TMP DP  RH WIND       PRES   REMARKS
ALBUQUERQUE    MOSUNNY   68  46  45 CALM      30.19F
EL PASO        MOSUNNY   70  54  56 CALM      30.13F
$$


........................KEY........................
SKY/WX - SKY CONDITION/WEATHER
TMP    - TEMPERATURE IN FAHRENHEIT
DP     - DEW POINT IN FAHRENHEIT
RH     - RELATIVE HUMIDITY IN PERCENT
WIND   - DIRECTION AND SPEED IN MILES PER HOUR (MPH)
VRB    - VARIABLE WIND DIRECTION
PRES   - MEAN SEA LEVEL PRESSURE IN INCHES OF MERCURY
         F - FALLING PRESSURE   R - RISING PRESSURE
         S - STEADY PRESSURE
VSB    - VISIBILITY IN MILES
HX     - HEAT INDEX IN FAHRENHEIT
WCI    - WIND CHILL INDEX IN FAHRENHEIT
TC     - TEMPERATURE IN CELSIUS WHICH IS ALSO KNOWN AS
         TEMPERATURE IN CENTIGRADE
AFB    - AIR FORCE BASE
         LUKE AFB IS LUKE AIR FORCE BASE
         DAVIS-MONTHAN IS DAVIS-MONTHAN AIR FORCE BASE
NAS    - NAVAL AIR STATION
         EL CENTRO NAS IS EL CENTRO NAVAL AIR STATION
N/A    - NOT AVAILABLE



USA.gov is the U.S. government's official web portal to all federal, state and local government web resources and services.